Time,TemperatureF,DewpointF,PressureIn,WindDirection,WindDirectionDegrees,WindSpeedMPH,WindSpeedGustMPH,Humidity,HourlyPrecipIn,Conditions,Clouds,dailyrainin,SolarRadiationWatts/m^2,SoftwareType,DateUTC
2013-05-25 00:01:00,62.0,32.0,-100.00,SSW,208,14.0,26.0,32,0.00,,,0.00,0.000000,,2013-05-25 07:01:00,
2013-05-25 00:11:00,62.0,32.0,-100.00,SSW,208,14.0,26.0,32,0.00,,,0.00,0.000000,,2013-05-25 07:11:00,
2013-05-25 00:32:00,62.0,33.0,-100.00,SSW,211,14.0,26.0,33,0.00,,,0.00,0.000000,,2013-05-25 07:32:00,
2013-05-25 00:42:00,62.0,33.0,-100.00,SSW,211,14.0,26.0,33,0.00,,,0.00,0.000000,,2013-05-25 07:42:00,
2013-05-25 00:52:00,62.0,33.0,-100.00,SSW,211,14.0,26.0,33,0.00,,,0.00,0.000000,,2013-05-25 07:52:00,
2013-05-25 01:02:00,62.0,33.0,-100.00,SSW,211,14.0,26.0,33,0.00,,,0.00,0.000000,,2013-05-25 08:02:00,
2013-05-25 01:11:00,62.0,33.0,-100.00,SSW,211,14.0,26.0,33,0.00,,,0.00,0.000000,,2013-05-25 08:11:00,
2013-05-25 01:32:00,61.0,33.0,-100.00,SW,215,14.0,25.0,35,0.00,,,0.00,0.000000,,2013-05-25 08:32:00,
2013-05-25 01:42:00,61.0,33.0,-100.00,SW,215,14.0,25.0,35,0.00,,,0.00,0.000000,,2013-05-25 08:42:00,
2013-05-25 01:52:00,61.0,33.0,-100.00,SW,215,14.0,25.0,35,0.00,,,0.00,0.000000,,2013-05-25 08:52:00,
2013-05-25 02:01:00,61.0,33.0,-100.00,SW,215,14.0,25.0,35,0.00,,,0.00,0.000000,,2013-05-25 09:01:00,
2013-05-25 02:11:00,61.0,33.0,-100.00,SW,215,14.0,25.0,35,0.00,,,0.00,0.000000,,2013-05-25 09:11:00,
2013-05-25 02:43:00,60.0,34.0,-100.00,SW,219,13.0,25.0,37,0.00,,,0.00,0.000000,,2013-05-25 09:43:00,
2013-05-25 02:53:00,60.0,34.0,-100.00,SW,219,13.0,25.0,37,0.00,,,0.00,0.000000,,2013-05-25 09:53:00,
2013-05-25 03:02:00,60.0,34.0,-100.00,SW,219,13.0,25.0,37,0.00,,,0.00,0.000000,,2013-05-25 10:02:00,
2013-05-25 03:12:00,60.0,34.0,-100.00,SW,219,13.0,25.0,37,0.00,,,0.00,0.000000,,2013-05-25 10:12:00,
2013-05-25 03:33:00,60.0,34.0,-100.00,SW,226,11.0,28.0,38,0.00,,,0.00,0.000000,,2013-05-25 10:33:00,
2013-05-25 03:42:00,60.0,34.0,-100.00,SW,226,11.0,28.0,38,0.00,,,0.00,0.000000,,2013-05-25 10:42:00,
2013-05-25 03:52:00,60.0,34.0,-100.00,SW,226,11.0,28.0,38,0.00,,,0.00,0.000000,,2013-05-25 10:52:00,
2013-05-25 04:02:00,60.0,34.0,-100.00,SW,226,11.0,28.0,38,0.00,,,0.00,0.000000,,2013-05-25 11:02:00,
2013-05-25 04:12:00,60.0,34.0,-100.00,SW,226,11.0,28.0,38,0.00,,,0.00,0.000000,,2013-05-25 11:12:00,
2013-05-25 04:32:00,59.0,34.0,-100.00,SSW,205,10.0,21.0,39,0.00,,,0.00,0.000000,,2013-05-25 11:32:00,
2013-05-25 04:42:00,59.0,34.0,-100.00,SSW,205,10.0,21.0,39,0.00,,,0.00,0.000000,,2013-05-25 11:42:00,
2013-05-25 04:52:00,59.0,34.0,-100.00,SSW,205,10.0,21.0,39,0.00,,,0.00,0.000000,,2013-05-25 11:52:00,
2013-05-25 05:01:00,59.0,34.0,-100.00,SSW,205,10.0,21.0,39,0.00,,,0.00,0.000000,,2013-05-25 12:01:00,
2013-05-25 05:12:00,59.0,34.0,-100.00,SSW,205,10.0,21.0,39,0.00,,,0.00,0.000000,,2013-05-25 12:12:00,
2013-05-25 05:32:00,59.0,34.0,-100.00,SSW,212,6.0,20.0,39,0.00,,,0.00,0.000000,,2013-05-25 12:32:00,
2013-05-25 05:42:00,59.0,34.0,-100.00,SSW,212,6.0,20.0,39,0.00,,,0.00,0.000000,,2013-05-25 12:42:00,
2013-05-25 05:52:00,59.0,34.0,-100.00,SSW,212,6.0,20.0,39,0.00,,,0.00,0.000000,,2013-05-25 12:52:00,
2013-05-25 06:02:00,59.0,34.0,-100.00,SSW,212,6.0,20.0,39,0.00,,,0.00,0.000000,,2013-05-25 13:02:00,
2013-05-25 06:11:00,59.0,34.0,-100.00,SSW,212,6.0,20.0,39,0.00,,,0.00,0.000000,,2013-05-25 13:11:00,
2013-05-25 06:32:00,59.0,33.0,-100.00,SSW,209,6.0,16.0,37,0.00,,,-99.99,8.000000,,2013-05-25 13:32:00,
2013-05-25 06:42:00,59.0,33.0,-100.00,SSW,209,6.0,16.0,37,0.00,,,-99.99,8.000000,,2013-05-25 13:42:00,
2013-05-25 06:52:00,59.0,33.0,-100.00,SSW,209,6.0,16.0,37,0.00,,,-99.99,8.000000,,2013-05-25 13:52:00,
2013-05-25 07:02:00,59.0,33.0,-100.00,SSW,209,6.0,16.0,37,0.00,,,-99.99,8.000000,,2013-05-25 14:02:00,
2013-05-25 07:11:00,59.0,33.0,-100.00,SSW,209,6.0,16.0,37,0.00,,,-99.99,8.000000,,2013-05-25 14:11:00,
2013-05-25 07:42:00,62.0,32.0,-100.00,SW,230,10.0,22.0,32,0.00,,,0.00,148.000000,,2013-05-25 14:42:00,
2013-05-25 07:52:00,62.0,32.0,-100.00,SW,230,10.0,22.0,32,0.00,,,0.00,148.000000,,2013-05-25 14:52:00,
2013-05-25 08:01:00,62.0,32.0,-100.00,SW,230,10.0,22.0,32,0.00,,,0.00,148.000000,,2013-05-25 15:01:00,
2013-05-25 08:11:00,62.0,32.0,-100.00,SW,230,10.0,22.0,32,0.00,,,0.00,148.000000,,2013-05-25 15:11:00,
2013-05-25 08:33:00,65.0,32.0,-100.00,SW,224,5.0,19.0,29,0.00,,,0.00,388.000000,,2013-05-25 15:33:00,
2013-05-25 08:43:00,65.0,32.0,-100.00,SW,224,5.0,19.0,29,0.00,,,0.00,388.000000,,2013-05-25 15:43:00,
2013-05-25 08:53:00,65.0,32.0,-100.00,SW,224,5.0,19.0,29,0.00,,,0.00,388.000000,,2013-05-25 15:53:00,
2013-05-25 09:03:00,65.0,32.0,-100.00,SW,224,5.0,19.0,29,0.00,,,0.00,388.000000,,2013-05-25 16:03:00,
2013-05-25 09:12:00,65.0,32.0,-100.00,SW,224,5.0,19.0,29,0.00,,,0.00,388.000000,,2013-05-25 16:12:00,
2013-05-25 09:33:00,67.0,31.0,-100.00,SW,232,9.0,23.0,26,0.00,,,-99.99,587.000000,,2013-05-25 16:33:00,
2013-05-25 09:42:00,67.0,31.0,-100.00,SW,232,9.0,23.0,26,0.00,,,-99.99,587.000000,,2013-05-25 16:42:00,
2013-05-25 09:52:00,67.0,31.0,-100.00,SW,232,9.0,23.0,26,0.00,,,-99.99,587.000000,,2013-05-25 16:52:00,
2013-05-25 10:02:00,67.0,31.0,-100.00,SW,232,9.0,23.0,26,0.00,,,-99.99,587.000000,,2013-05-25 17:02:00,
2013-05-25 10:11:00,67.0,31.0,-100.00,SW,232,9.0,23.0,26,0.00,,,-99.99,587.000000,,2013-05-25 17:11:00,
2013-05-25 10:33:00,69.0,32.0,-100.00,SW,216,10.0,23.0,25,0.00,,,0.00,700.000000,,2013-05-25 17:33:00,
2013-05-25 10:42:00,69.0,32.0,-100.00,SW,216,10.0,23.0,25,0.00,,,0.00,700.000000,,2013-05-25 17:42:00,
2013-05-25 10:52:00,69.0,32.0,-100.00,SW,216,10.0,23.0,25,0.00,,,0.00,700.000000,,2013-05-25 17:52:00,
2013-05-25 11:01:00,69.0,32.0,-100.00,SW,216,10.0,23.0,25,0.00,,,0.00,700.000000,,2013-05-25 18:01:00,
2013-05-25 11:11:00,69.0,32.0,-100.00,SW,216,10.0,23.0,25,0.00,,,0.00,700.000000,,2013-05-25 18:11:00,
2013-05-25 11:32:00,71.0,31.0,-100.00,SSW,205,9.0,24.0,23,0.00,,,0.00,907.000000,,2013-05-25 18:32:00,
2013-05-25 11:42:00,71.0,31.0,-100.00,SSW,205,9.0,24.0,23,0.00,,,0.00,907.000000,,2013-05-25 18:42:00,
2013-05-25 11:52:00,71.0,31.0,-100.00,SSW,205,9.0,24.0,23,0.00,,,0.00,907.000000,,2013-05-25 18:52:00,
2013-05-25 12:01:00,71.0,31.0,-100.00,SSW,205,9.0,24.0,23,0.00,,,0.00,907.000000,,2013-05-25 19:01:00,
2013-05-25 12:11:00,71.0,31.0,-100.00,SSW,205,9.0,24.0,23,0.00,,,0.00,907.000000,,2013-05-25 19:11:00,
2013-05-25 12:32:00,72.0,30.0,-100.00,SSW,212,11.0,31.0,21,0.00,,,0.00,991.000000,,2013-05-25 19:32:00,
2013-05-25 12:42:00,72.0,30.0,-100.00,SSW,212,11.0,31.0,21,0.00,,,0.00,991.000000,,2013-05-25 19:42:00,
2013-05-25 12:52:00,72.0,30.0,-100.00,SSW,212,11.0,31.0,21,0.00,,,0.00,991.000000,,2013-05-25 19:52:00,
2013-05-25 13:02:00,72.0,30.0,-100.00,SSW,212,11.0,31.0,21,0.00,,,0.00,991.000000,,2013-05-25 20:02:00,
2013-05-25 13:11:00,72.0,30.0,-100.00,SSW,212,11.0,31.0,21,0.00,,,0.00,991.000000,,2013-05-25 20:11:00,
2013-05-25 13:32:00,72.0,30.0,-100.00,SW,235,15.0,35.0,21,0.00,,,0.00,1017.000000,,2013-05-25 20:32:00,
2013-05-25 13:42:00,72.0,30.0,-100.00,SW,235,15.0,35.0,21,0.00,,,0.00,1017.000000,,2013-05-25 20:42:00,
2013-05-25 13:52:00,72.0,30.0,-100.00,SW,235,15.0,35.0,21,0.00,,,0.00,1017.000000,,2013-05-25 20:52:00,
2013-05-25 14:02:00,72.0,30.0,-100.00,SW,235,15.0,35.0,21,0.00,,,0.00,1017.000000,,2013-05-25 21:02:00,
2013-05-25 14:11:00,72.0,30.0,-100.00,SW,235,15.0,35.0,21,0.00,,,0.00,1017.000000,,2013-05-25 21:11:00,
2013-05-25 14:33:00,74.0,28.0,-100.00,South,181,17.0,37.0,18,0.00,,,0.00,1001.000000,,2013-05-25 21:33:00,
2013-05-25 14:43:00,74.0,28.0,-100.00,South,181,17.0,37.0,18,0.00,,,0.00,1001.000000,,2013-05-25 21:43:00,
2013-05-25 14:53:00,74.0,28.0,-100.00,South,181,17.0,37.0,18,0.00,,,0.00,1001.000000,,2013-05-25 21:53:00,
2013-05-25 15:03:00,74.0,28.0,-100.00,South,181,17.0,37.0,18,0.00,,,0.00,1001.000000,,2013-05-25 22:03:00,
2013-05-25 15:12:00,74.0,28.0,-100.00,South,181,17.0,37.0,18,0.00,,,0.00,1001.000000,,2013-05-25 22:12:00,
2013-05-25 15:33:00,74.0,25.0,-100.00,SSW,195,13.0,38.0,16,0.00,,,0.00,924.000000,,2013-05-25 22:33:00,
2013-05-25 15:42:00,74.0,25.0,-100.00,SSW,195,13.0,38.0,16,0.00,,,0.00,924.000000,,2013-05-25 22:42:00,
2013-05-25 15:52:00,74.0,25.0,-100.00,SSW,195,13.0,38.0,16,0.00,,,0.00,924.000000,,2013-05-25 22:52:00,
2013-05-25 16:02:00,74.0,25.0,-100.00,SSW,195,13.0,38.0,16,0.00,,,0.00,924.000000,,2013-05-25 23:02:00,
2013-05-25 16:12:00,74.0,25.0,-100.00,SSW,195,13.0,38.0,16,0.00,,,0.00,924.000000,,2013-05-25 23:12:00,
2013-05-25 16:32:00,74.0,25.0,-100.00,South,185,16.0,40.0,16,0.00,,,0.00,780.000000,,2013-05-25 23:32:00,
2013-05-25 16:42:00,74.0,25.0,-100.00,South,185,16.0,40.0,16,0.00,,,0.00,780.000000,,2013-05-25 23:42:00,
2013-05-25 16:52:00,74.0,25.0,-100.00,South,185,16.0,40.0,16,0.00,,,0.00,780.000000,,2013-05-25 23:52:00,
2013-05-25 17:01:00,74.0,25.0,-100.00,South,185,16.0,40.0,16,0.00,,,0.00,780.000000,,2013-05-26 00:01:00,
2013-05-25 17:11:00,74.0,25.0,-100.00,South,185,16.0,40.0,16,0.00,,,0.00,780.000000,,2013-05-26 00:11:00,
2013-05-25 18:32:00,73.0,27.0,-100.00,South,174,11.0,33.0,18,-99.99,,,0.00,386.000000,,2013-05-26 01:32:00,
2013-05-25 18:42:00,73.0,27.0,-100.00,South,174,11.0,33.0,18,-99.99,,,0.00,386.000000,,2013-05-26 01:42:00,
2013-05-25 18:52:00,73.0,27.0,-100.00,South,174,11.0,33.0,18,-99.99,,,0.00,386.000000,,2013-05-26 01:52:00,
2013-05-25 19:02:00,73.0,27.0,-100.00,South,174,11.0,33.0,18,-99.99,,,0.00,386.000000,,2013-05-26 02:02:00,
2013-05-25 19:11:00,73.0,27.0,-100.00,South,174,11.0,33.0,18,-99.99,,,0.00,386.000000,,2013-05-26 02:11:00,
2013-05-25 19:32:00,68.0,25.0,-100.00,SSW,194,6.0,23.0,20,0.00,,,0.00,151.000000,,2013-05-26 02:32:00,
2013-05-25 19:42:00,68.0,25.0,-100.00,SSW,194,6.0,23.0,20,0.00,,,0.00,151.000000,,2013-05-26 02:42:00,
2013-05-25 19:52:00,68.0,25.0,-100.00,SSW,194,6.0,23.0,20,0.00,,,0.00,151.000000,,2013-05-26 02:52:00,
2013-05-25 20:01:00,68.0,25.0,-100.00,SSW,194,6.0,23.0,20,0.00,,,0.00,151.000000,,2013-05-26 03:01:00,
2013-05-25 20:11:00,68.0,25.0,-100.00,SSW,194,6.0,23.0,20,0.00,,,0.00,151.000000,,2013-05-26 03:11:00,
2013-05-25 20:43:00,65.0,29.0,-100.00,SE,142,6.0,21.0,26,0.00,,,0.00,11.000000,,2013-05-26 03:43:00,
2013-05-25 20:53:00,65.0,29.0,-100.00,SE,142,6.0,21.0,26,0.00,,,0.00,11.000000,,2013-05-26 03:53:00,
2013-05-25 21:02:00,65.0,29.0,-100.00,SE,142,6.0,21.0,26,0.00,,,0.00,11.000000,,2013-05-26 04:02:00,
2013-05-25 21:12:00,65.0,29.0,-100.00,SE,142,6.0,21.0,26,0.00,,,0.00,11.000000,,2013-05-26 04:12:00,
2013-05-25 21:33:00,64.0,30.0,-100.00,SSW,195,5.0,19.0,28,0.00,,,0.00,0.000000,,2013-05-26 04:33:00,
2013-05-25 21:42:00,64.0,30.0,-100.00,SSW,195,5.0,19.0,28,0.00,,,0.00,0.000000,,2013-05-26 04:42:00,
2013-05-25 21:52:00,64.0,30.0,-100.00,SSW,195,5.0,19.0,28,0.00,,,0.00,0.000000,,2013-05-26 04:52:00,
2013-05-25 22:02:00,64.0,30.0,-100.00,SSW,195,5.0,19.0,28,0.00,,,0.00,0.000000,,2013-05-26 05:02:00,
2013-05-25 22:12:00,64.0,30.0,-100.00,SSW,195,5.0,19.0,28,0.00,,,0.00,0.000000,,2013-05-26 05:12:00,
2013-05-25 22:32:00,64.0,30.0,-100.00,SSW,205,9.0,22.0,28,0.00,,,0.00,0.000000,,2013-05-26 05:32:00,
2013-05-25 22:42:00,64.0,30.0,-100.00,SSW,205,9.0,22.0,28,0.00,,,0.00,0.000000,,2013-05-26 05:42:00,
2013-05-25 22:52:00,64.0,30.0,-100.00,SSW,205,9.0,22.0,28,0.00,,,0.00,0.000000,,2013-05-26 05:52:00,
2013-05-25 23:01:00,64.0,30.0,-100.00,SSW,205,9.0,22.0,28,0.00,,,0.00,0.000000,,2013-05-26 06:01:00,
2013-05-25 23:11:00,64.0,30.0,-100.00,SSW,205,9.0,22.0,28,0.00,,,0.00,0.000000,,2013-05-26 06:11:00,
2013-05-25 23:32:00,63.0,28.0,-100.00,South,184,9.0,25.0,26,0.00,,,0.00,0.000000,,2013-05-26 06:32:00,
2013-05-25 23:42:00,63.0,28.0,-100.00,South,184,9.0,25.0,26,0.00,,,0.00,0.000000,,2013-05-26 06:42:00,
2013-05-25 23:52:00,63.0,28.0,-100.00,South,184,9.0,25.0,26,0.00,,,0.00,0.000000,,2013-05-26 06:52:00,